Temp
26 25 24 23 20 19 18 17 16 16 16 16 16 16 16 16 15 15 14 14 14 15 14 14 15 15 14 13 13 13 14 13
26 25 24 23 20 19 18 17 16 16 16 17 17 17 16 16 15 14 14 14 13 14 14 14 14 13 12 12 13 13 14 13
26 25 23 23 20 19 18 18 16 17 17 18 18 17 16 16 15 14 14 13 13 14 14 13 13 13 12 11 11 12 13 13
27 25 23 22 20 19 19 18 17 17 18 18 17 17 16 16 14 14 13 13 13 13 12 12 12 12 12 11 10 10 11 12
28 25 24 22 21 20 19 18 17 17 18 18 17 17 17 16 15 15 13 13 13 12 11 11 11 11 10 10 9 9 9 10
28 26 24 23 21 20 19 19 18 18 17 17 17 17 18 17 16 14 13 12 12 11 11 10 10 10 8 7 7 7 8 8
29 26 25 23 22 20 19 19 18 18 17 17 17 17 18 17 16 14 14 12 11 11 10 10 9 7 6 7 7 6 6 6
29 28 25 24 22 20 18 18 18 17 16 17 17 17 17 16 15 15 14 13 12 10 10 8 7 5 5 6 6 6 5 5
29 28 26 24 22 19 18 18 18 17 16 16 17 17 16 16 16 16 15 14 12 10 8 6 5 5 6 5 6 5 4 4
28 28 26 25 22 20 19 18 18 17 16 16 16 16 16 16 16 15 14 13 11 9 7 5 5 5 5 5 5 4 4 4
27 27 26 24 23 20 19 18 17 16 16 16 15 15 15 16 15 14 13 11 9 7 5 5 5 4 4 4 4 3 3 3
24 26 25 24 22 20 18 17 18 17 16 15 15 14 15 14 13 12 10 9 7 5 5 4 5 5 4 4 3 3 2 2
23 22 22 22 21 20 18 18 18 17 16 15 14 14 13 12 11 10 9 7 6 6 5 5 5 4 3 3 2 2 2 2
22 21 21 21 20 20 19 18 18 17 16 14 13 12 11 11 10 9 7 6 5 5 5 5 4 3 3 2 2 2 1 1
21 21 20 20 19 18 18 18 17 15 14 13 12 11 11 10 8 7 6 5 5 5 4 4 3 2 2 2 2 1 1 1
21 20 19 18 17 16 16 15 14 14 13 13 11 10 9 8 6 6 5 5 5 4 3 3 2 2 0 -1 1 1 1 1
21 20 18 17 16 15 15 14 14 13 13 12 10 9 8 7 5 5 5 5 4 3 3 3 2 2 -2 -2 -2 -0 1 1
21 20 18 17 15 15 14 14 13 13 12 11 9 8 7 5 5 5 5 4 4 3 3 2 2 -1 -3 -3 -2 -1 0 1
21 19 17 16 15 14 13 13 13 12 11 10 8 7 6 6 5 6 5 4 4 3 2 2 1 -2 -3 -3 -2 -2 0 0
Height
817 824 829 837 846 852 858 863 867 870 874 877 879 881 883 886 888 890 892 893 894 895 895 895 895 894 895 894 893 891 889 887
813 822 827 834 844 849 855 860 865 869 872 875 877 879 883 885 888 890 892 893 894 895 896 896 896 896 896 895 894 891 888 887
808 818 825 832 840 846 852 856 862 866 869 872 875 878 881 884 887 890 891 892 894 895 896 896 896 896 897 896 895 893 890 888
802 813 820 828 835 842 848 852 858 862 866 869 873 877 880 883 887 889 890 892 894 895 896 896 896 897 897 897 896 894 892 889
796 807 814 822 830 837 844 849 855 859 863 867 870 873 877 880 884 887 889 891 893 894 895 896 897 897 897 897 896 896 894 892
789 800 808 816 825 833 840 845 851 856 860 864 869 871 873 877 882 886 888 891 892 894 895 896 897 897 898 897 897 897 896 895
783 796 805 813 821 828 835 841 847 853 858 862 866 868 870 875 879 884 886 889 892 893 895 896 897 897 897 898 898 898 897 896
776 787 798 807 816 824 832 838 844 849 855 859 863 866 869 873 877 881 884 887 890 893 895 896 897 897 898 899 898 898 898 897
771 779 792 802 812 822 828 834 839 845 851 857 861 864 867 871 875 877 882 885 888 891 894 895 895 896 898 898 898 898 898 897
772 776 788 797 808 817 823 828 836 843 848 852 857 862 865 868 872 876 880 883 888 891 893 894 895 897 898 899 899 899 898 897
777 778 787 796 804 814 822 829 832 840 846 851 855 860 864 867 871 876 879 884 887 890 892 894 896 897 898 898 898 899 898 898
785 783 789 794 802 810 818 826 831 837 845 850 853 858 863 866 872 876 880 884 887 889 892 894 896 898 898 898 898 898 898 898
788 791 794 799 803 809 815 822 828 833 841 846 853 856 861 867 872 876 880 883 886 889 891 894 896 897 898 898 898 898 898 897
788 792 795 799 803 806 813 818 823 831 841 847 851 856 860 867 872 876 879 882 885 888 892 894 895 897 897 897 898 897 897 897
787 791 795 799 804 808 813 817 823 831 839 846 852 856 860 865 871 875 879 882 885 889 892 894 894 896 897 897 897 896 896 895
785 790 796 801 806 810 814 820 826 832 838 845 851 855 860 865 870 875 878 882 885 888 891 892 894 895 895 896 896 895 894 893
782 788 795 800 805 810 815 821 826 831 837 844 851 855 860 865 870 874 878 881 884 887 890 892 894 895 894 893 893 894 893 891
778 785 792 797 803 808 814 820 825 830 837 845 850 855 859 864 869 872 876 880 884 886 889 890 892 893 893 892 892 892 892 891
773 782 789 795 801 807 814 819 825 831 838 845 849 854 859 863 867 871 876 880 883 886 888 890 892 892 892 891 890 890 890 890
Wind_Speed
23 23 22 22 20 19 19 19 17 15 15 13 12 12 11 10 10 9 9 8 7 6 6 5 5 6 8 9 9 10 10 15
24 25 24 23 23 21 21 21 20 18 16 16 14 13 12 11 10 10 9 8 6 5 4 4 5 7 7 9 11 12 13 14
25 26 25 25 24 23 22 22 22 20 17 15 14 14 13 12 11 10 8 8 6 4 4 4 4 4 7 9 11 12 14 13
21 28 28 27 27 26 24 24 24 21 17 16 15 14 13 12 12 10 9 8 6 5 4 4 4 5 6 8 10 12 14 13
21 28 30 30 29 27 25 25 25 22 20 19 18 18 15 14 13 12 11 9 7 6 5 4 4 4 6 7 9 11 11 13
22 28 31 31 30 29 27 26 26 24 23 20 20 16 14 15 14 13 11 9 8 6 5 4 4 4 6 8 9 11 11 11
22 28 29 30 30 29 29 29 27 25 24 22 21 18 15 16 16 15 13 10 8 6 5 4 5 5 6 7 8 9 10 10
20 23 29 30 31 29 28 29 28 27 26 24 21 19 16 16 17 15 14 12 9 7 6 5 5 6 6 6 7 7 8 8
19 23 28 29 30 29 29 29 28 28 26 24 21 19 18 16 16 14 13 11 9 10 8 8 7 6 4 5 5 6 7 7
15 22 27 28 29 30 30 31 27 26 26 25 22 20 17 18 16 12 12 11 11 10 9 8 7 5 4 4 4 6 6 7
12 17 23 24 26 26 26 25 28 26 26 24 22 20 18 14 14 13 13 13 13 12 10 8 6 5 3 4 4 5 6 6
7 10 19 22 24 24 25 26 27 26 25 23 21 20 17 14 15 15 15 15 13 12 10 8 6 3 3 3 4 4 5 6
10 10 12 15 18 22 23 26 27 26 25 23 22 20 19 18 17 16 16 15 13 12 10 8 5 4 3 3 3 4 5 6
9 11 13 15 18 18 21 24 25 24 23 23 22 22 21 20 19 18 16 16 14 11 9 7 6 4 3 2 3 4 5 6
11 11 13 15 16 17 19 22 22 24 24 23 23 22 22 21 20 18 17 15 13 10 8 8 6 4 2 2 3 4 5 5
13 13 14 16 16 17 18 20 22 25 26 24 23 23 22 21 20 18 16 14 12 11 10 8 6 4 2 2 2 3 4 5
14 14 17 18 19 20 21 22 25 26 25 24 23 23 23 21 20 18 17 14 12 11 9 8 6 4 0 1 3 3 5 5
16 16 19 20 21 22 22 24 25 25 25 24 24 23 22 21 19 17 15 13 12 10 9 8 6 5 1 1 4 3 5 6
17 19 21 21 22 22 23 24 25 25 25 25 24 23 22 20 18 16 14 13 11 10 8 7 6 5 1 2 3 5 6 7
Wind_Direction
173 177 171 170 164 166 169 172 171 167 164 164 160 158 150 147 145 145 133 128 117 110 97 78 56 42 32 23 8 3 356 349
174 180 172 172 167 168 170 172 173 170 172 175 169 164 159 155 151 146 142 139 130 122 106 81 64 48 36 21 5 357 355 357
176 177 177 179 173 174 173 174 175 177 178 177 175 168 167 162 158 156 154 148 145 135 119 88 55 50 35 21 13 1 353 360
177 179 182 183 178 178 179 177 178 181 178 174 168 164 162 163 165 164 162 159 152 141 121 104 66 47 29 18 12 6 351 353
182 183 183 187 182 181 181 178 180 182 180 176 177 175 176 180 175 169 165 164 159 151 132 108 71 52 36 21 15 9 5 352
186 189 187 186 180 182 183 180 181 182 184 182 182 183 186 174 173 167 168 168 165 158 142 113 82 67 50 44 29 18 9 355
187 191 189 187 179 180 183 183 183 183 186 187 188 192 182 174 176 175 175 174 171 166 150 123 100 84 61 45 27 19 10 5
192 187 188 185 180 179 181 185 185 184 187 190 191 192 190 184 181 185 181 178 176 169 158 131 104 90 70 40 28 15 9 5
196 190 182 186 180 182 184 188 187 186 186 191 192 189 188 191 190 188 185 184 175 160 146 129 115 91 73 42 23 13 6 358
199 188 182 184 183 187 187 187 186 184 187 188 189 188 189 198 185 178 185 160 155 151 143 128 110 95 62 39 23 16 360 352
190 189 180 188 186 187 188 188 184 185 188 188 186 186 188 193 168 173 157 153 151 148 138 126 121 97 62 40 24 11 358 352
203 192 183 189 181 179 184 188 189 186 188 185 178 178 181 163 164 158 155 150 148 143 137 134 121 104 68 50 31 7 357 356
169 185 186 187 180 186 184 189 192 183 184 179 177 168 159 153 156 154 152 147 146 145 141 137 132 112 84 54 25 12 4 0
163 168 175 176 178 174 180 182 186 176 177 175 167 159 154 155 153 151 149 147 146 140 142 142 134 124 102 52 24 12 2 351
168 164 162 162 163 167 168 171 158 163 170 170 165 160 155 153 151 150 147 144 142 144 144 144 137 126 89 32 9 1 348 341
170 165 160 157 156 157 159 162 165 166 167 168 164 155 150 148 147 147 144 144 144 147 148 146 141 132 118 46 4 337 336 331
180 168 164 164 162 161 160 164 165 165 165 163 158 152 149 148 147 145 144 146 150 152 154 152 152 149 138 65 19 330 329 327
183 173 170 166 165 162 163 164 162 162 161 158 157 153 150 151 149 148 149 152 155 156 159 161 166 158 253 27 4 332 321 324
181 175 170 166 162 161 161 160 160 160 159 160 157 155 152 151 149 149 152 157 161 163 167 169 174 177 278 9 16 312 309 314